ASL70J LYBE-LGAV

Flight info

Callsign ASL70J
Flight time 1h 15m
Altitude 39000
Route TPL DCT RAXAD DCT MAKED UL617 SKP UM749 ROPOX
Aircraft E190/M-SDE3GILORVW/S

Departure

Time 2026-05-06 15:09
Airport Belgrade Nikola Tesla Airport (LYBE)

Arrival

Time 2026-05-06 16:24
Airport Athens Eleftherios Venizelos International Airport (LGAV)
Time Latitude Longitude Altitude Speed Heading
2026-05-06 14:41 44.82192 20.29014 339 ft 0 kts 212°
2026-05-06 15:02 44.82203 20.29025 339 ft 2 kts 212°
2026-05-06 15:02 44.82216 20.29036 339 ft 2 kts 212°
2026-05-06 15:02 44.82229 20.29047 339 ft 2 kts 212°
2026-05-06 15:02 44.82242 20.29059 339 ft 2 kts 225°
2026-05-06 15:03 44.82249 20.29078 339 ft 2 kts 261°
2026-05-06 15:03 44.82247 20.29098 339 ft 1 kts 294°
2026-05-06 15:03 44.82244 20.29106 339 ft 1 kts 307°
2026-05-06 15:03 44.82242 20.29110 339 ft 0 kts 302°
2026-05-06 15:05 44.82243 20.29108 339 ft 0 kts 302°
2026-05-06 15:05 44.82250 20.29092 339 ft 3 kts 301°
2026-05-06 15:05 44.82267 20.29053 339 ft 6 kts 302°
2026-05-06 15:06 44.82296 20.28986 339 ft 9 kts 301°
2026-05-06 15:06 44.82338 20.28896 339 ft 12 kts 302°
2026-05-06 15:06 44.82380 20.28800 339 ft 9 kts 302°
2026-05-06 15:06 44.82418 20.28791 339 ft 4 kts 34°
2026-05-06 15:07 44.82441 20.28813 339 ft 3 kts 32°
2026-05-06 15:07 44.82462 20.28827 339 ft 3 kts 20°
2026-05-06 15:07 44.82484 20.28838 339 ft 4 kts 23°
2026-05-06 15:07 44.82536 20.28882 339 ft 12 kts 37°
2026-05-06 15:08 44.82602 20.28997 339 ft 17 kts 68°
2026-05-06 15:08 44.82614 20.29172 339 ft 18 kts 109°
2026-05-06 15:08 44.82521 20.29389 339 ft 50 kts 122°
2026-05-06 15:08 44.82215 20.30091 339 ft 116 kts 123°
2026-05-06 15:09 44.81683 20.31295 399 ft 160 kts 121°
2026-05-06 15:09 44.81118 20.32634 920 ft 167 kts 120°
2026-05-06 15:09 44.80500 20.34185 1230 ft 193 kts 118°
2026-05-06 15:09 44.79837 20.35974 1595 ft 220 kts 116°
2026-05-06 15:10 44.79079 20.37947 2205 ft 241 kts 118°
2026-05-06 15:10 44.78282 20.40050 3092 ft 248 kts 118°
2026-05-06 15:10 44.77342 20.42074 3847 ft 260 kts 125°
2026-05-06 15:10 44.76299 20.44176 4650 ft 270 kts 127°
2026-05-06 15:11 44.75218 20.46281 5488 ft 254 kts 127°
2026-05-06 15:11 44.74206 20.48283 6036 ft 252 kts 127°
2026-05-06 15:11 44.73226 20.50318 6584 ft 251 kts 122°
2026-05-06 15:11 44.72274 20.52390 6793 ft 253 kts 133°
2026-05-06 15:12 44.70831 20.53673 6899 ft 247 kts 169°
2026-05-06 15:12 44.69055 20.53675 7068 ft 259 kts 186°
2026-05-06 15:12 44.67278 20.53450 7160 ft 262 kts 186°
2026-05-06 15:12 44.65416 20.53212 7329 ft 270 kts 186°
2026-05-06 15:13 44.63554 20.52975 7439 ft 272 kts 186°
2026-05-06 15:13 44.61646 20.52731 7606 ft 279 kts 186°
2026-05-06 15:13 44.59735 20.52487 7887 ft 268 kts 186°
2026-05-06 15:13 44.57877 20.52250 8009 ft 274 kts 186°
2026-05-06 15:14 44.55911 20.51997 8418 ft 294 kts 186°
2026-05-06 15:14 44.53895 20.51739 9399 ft 292 kts 186°
2026-05-06 15:14 44.51886 20.51659 10445 ft 290 kts 176°
2026-05-06 15:14 44.49918 20.52207 11252 ft 295 kts 165°
2026-05-06 15:15 44.47934 20.53147 11843 ft 308 kts 161°
2026-05-06 15:15 44.45917 20.54295 12374 ft 320 kts 158°
2026-05-06 15:15 44.43846 20.55565 12992 ft 329 kts 158°
2026-05-06 15:15 44.41760 20.56883 13709 ft 333 kts 157°
2026-05-06 15:16 44.39632 20.58243 14461 ft 336 kts 156°
2026-05-06 15:16 44.37515 20.59601 15172 ft 339 kts 156°
2026-05-06 15:16 44.35383 20.60972 15836 ft 343 kts 156°
2026-05-06 15:16 44.33192 20.62379 16482 ft 347 kts 156°
2026-05-06 15:17 44.30981 20.63799 17200 ft 348 kts 156°
2026-05-06 15:17 44.28800 20.65198 17971 ft 346 kts 157°
2026-05-06 15:17 44.26602 20.66606 18437 ft 354 kts 158°
2026-05-06 15:17 44.24350 20.68049 18874 ft 362 kts 158°
2026-05-06 15:18 44.22044 20.69525 19369 ft 367 kts 158°
2026-05-06 15:18 44.19713 20.71015 19929 ft 371 kts 158°
2026-05-06 15:18 44.17368 20.72513 20497 ft 375 kts 158°
2026-05-06 15:18 44.14961 20.74050 21082 ft 380 kts 157°
2026-05-06 15:19 44.12671 20.75850 21661 ft 385 kts 151°
2026-05-06 15:19 44.10372 20.77799 22259 ft 390 kts 151°
2026-05-06 15:19 44.08025 20.79782 22861 ft 394 kts 152°
2026-05-06 15:19 44.05700 20.81744 23474 ft 397 kts 152°
2026-05-06 15:20 44.03336 20.83737 24123 ft 399 kts 152°
2026-05-06 15:20 44.00984 20.85717 24766 ft 401 kts 151°
2026-05-06 15:20 43.98582 20.87737 25366 ft 404 kts 151°
2026-05-06 15:20 43.96160 20.89772 25789 ft 412 kts 152°
2026-05-06 15:21 43.93687 20.91848 26227 ft 418 kts 151°
2026-05-06 15:21 43.91188 20.93944 26717 ft 423 kts 152°
2026-05-06 15:21 43.88685 20.96042 27264 ft 426 kts 151°
2026-05-06 15:21 43.86129 20.98182 27839 ft 428 kts 152°
2026-05-06 15:22 43.83581 21.00311 28376 ft 430 kts 151°
2026-05-06 15:22 43.81008 21.02461 28894 ft 433 kts 151°
2026-05-06 15:22 43.78442 21.04602 29372 ft 437 kts 152°
2026-05-06 15:22 43.75833 21.06777 29833 ft 441 kts 151°
2026-05-06 15:23 43.73177 21.08989 30295 ft 445 kts 151°
2026-05-06 15:23 43.70520 21.11199 30774 ft 448 kts 151°
2026-05-06 15:23 43.67872 21.13400 31264 ft 450 kts 151°
2026-05-06 15:23 43.65194 21.15623 31760 ft 452 kts 151°
2026-05-06 15:24 43.62476 21.17878 32318 ft 453 kts 151°
2026-05-06 15:24 43.59807 21.20089 32926 ft 452 kts 151°
2026-05-06 15:24 43.57123 21.22311 33572 ft 450 kts 151°
2026-05-06 15:24 43.54459 21.24513 34207 ft 447 kts 151°
2026-05-06 15:25 43.51789 21.26718 34781 ft 446 kts 151°
2026-05-06 15:25 43.49128 21.28913 35307 ft 445 kts 151°
2026-05-06 15:25 43.46484 21.31092 35823 ft 443 kts 151°
2026-05-06 15:25 43.43845 21.33265 36309 ft 442 kts 151°
2026-05-06 15:26 43.41228 21.35418 36817 ft 442 kts 152°
2026-05-06 15:26 43.38578 21.37594 37377 ft 442 kts 152°
2026-05-06 15:26 43.35941 21.39759 37954 ft 441 kts 151°
2026-05-06 15:26 43.33310 21.41916 38527 ft 441 kts 152°
2026-05-06 15:27 43.30667 21.44081 38988 ft 442 kts 152°
2026-05-06 15:27 43.25268 21.48495 38991 ft 461 kts 151°
2026-05-06 15:28 43.19738 21.53009 39144 ft 469 kts 151°
2026-05-06 15:28 43.16904 21.55318 38992 ft 466 kts 151°
2026-05-06 15:28 43.14139 21.57569 38832 ft 465 kts 151°
2026-05-06 15:28 43.11378 21.59813 39037 ft 466 kts 151°
2026-05-06 15:29 43.08581 21.62085 39009 ft 466 kts 151°
2026-05-06 15:29 43.03017 21.66596 39003 ft 466 kts 152°
2026-05-06 15:30 42.97415 21.71129 38997 ft 466 kts 152°
2026-05-06 15:30 42.91835 21.75634 38998 ft 467 kts 152°
2026-05-06 15:31 42.86205 21.80170 39003 ft 468 kts 152°
2026-05-06 15:31 42.80630 21.84653 38866 ft 466 kts 152°
2026-05-06 15:32 42.75044 21.89134 39030 ft 468 kts 152°
2026-05-06 15:32 42.72257 21.91366 39033 ft 468 kts 152°
2026-05-06 15:32 42.66651 21.95849 39034 ft 468 kts 152°
2026-05-06 15:33 42.61020 22.00342 39038 ft 469 kts 152°
2026-05-06 15:33 42.55424 22.04799 39045 ft 470 kts 152°
2026-05-06 15:34 42.49793 22.09274 39050 ft 470 kts 152°
2026-05-06 15:34 42.44137 22.13759 39059 ft 470 kts 152°
2026-05-06 15:35 42.38520 22.18203 39059 ft 470 kts 152°
2026-05-06 15:35 42.32847 22.22605 39054 ft 470 kts 156°
2026-05-06 15:36 42.26685 22.25236 39067 ft 464 kts 173°
2026-05-06 15:36 42.20348 22.26751 39051 ft 463 kts 173°
2026-05-06 15:37 42.13960 22.28253 39051 ft 465 kts 173°
2026-05-06 15:37 42.07597 22.29753 39047 ft 465 kts 173°
2026-05-06 15:38 42.01245 22.31245 39039 ft 463 kts 173°
2026-05-06 15:38 41.94927 22.32724 39043 ft 465 kts 173°
2026-05-06 15:39 41.88544 22.34215 39041 ft 465 kts 173°
2026-05-06 15:39 41.82171 22.35702 39047 ft 466 kts 173°
2026-05-06 15:40 41.78954 22.36451 39163 ft 467 kts 173°
2026-05-06 15:40 41.75770 22.37192 39057 ft 464 kts 173°
2026-05-06 15:40 41.69412 22.38669 39051 ft 466 kts 173°
2026-05-06 15:41 41.63056 22.40143 39064 ft 465 kts 173°
2026-05-06 15:41 41.56697 22.41614 39057 ft 465 kts 173°
2026-05-06 15:42 41.50307 22.43089 39039 ft 466 kts 173°
2026-05-06 15:42 41.43942 22.44556 39051 ft 466 kts 173°
2026-05-06 15:43 41.37553 22.46026 39038 ft 465 kts 173°
2026-05-06 15:43 41.31200 22.47483 39039 ft 467 kts 173°
2026-05-06 15:44 41.24834 22.48941 39044 ft 466 kts 173°
2026-05-06 15:44 41.18435 22.50404 39049 ft 468 kts 173°
2026-05-06 15:45 41.12105 22.52395 39022 ft 470 kts 160°
2026-05-06 15:45 41.06284 22.56365 39024 ft 474 kts 153°
2026-05-06 15:46 41.00496 22.60505 39028 ft 474 kts 153°
2026-05-06 15:46 40.94679 22.64636 38865 ft 474 kts 153°
2026-05-06 15:47 40.91795 22.66681 39038 ft 475 kts 154°
2026-05-06 15:47 40.88874 22.68750 39016 ft 475 kts 154°
2026-05-06 15:47 40.83055 22.72865 39010 ft 475 kts 154°
2026-05-06 15:48 40.77282 22.76939 39019 ft 475 kts 154°
2026-05-06 15:48 40.71452 22.81045 39014 ft 475 kts 154°
2026-05-06 15:49 40.65635 22.85134 38924 ft 472 kts 154°
2026-05-06 15:49 40.59814 22.89218 39026 ft 476 kts 154°
2026-05-06 15:50 40.53956 22.93320 39016 ft 475 kts 154°
2026-05-06 15:50 40.48138 22.97385 39008 ft 475 kts 154°
2026-05-06 15:51 40.42120 23.00880 39017 ft 474 kts 161°
2026-05-06 15:51 40.35987 23.03935 39016 ft 474 kts 161°
2026-05-06 15:52 40.29810 23.07007 39018 ft 474 kts 161°
2026-05-06 15:52 40.23655 23.10062 39011 ft 474 kts 161°
2026-05-06 15:53 40.17541 23.13092 39009 ft 473 kts 161°
2026-05-06 15:53 40.11364 23.16146 39009 ft 475 kts 161°
2026-05-06 15:54 40.05191 23.19194 39012 ft 474 kts 161°
2026-05-06 15:54 39.99057 23.22215 39017 ft 475 kts 161°
2026-05-06 15:55 39.92849 23.25267 39016 ft 475 kts 161°
2026-05-06 15:55 39.86678 23.28296 39015 ft 474 kts 161°
2026-05-06 15:56 39.80526 23.31311 39017 ft 474 kts 161°
2026-05-06 15:56 39.74350 23.34331 39020 ft 474 kts 161°
2026-05-06 15:57 39.68189 23.37336 39015 ft 476 kts 161°
2026-05-06 15:57 39.62004 23.40346 39021 ft 475 kts 161°
2026-05-06 15:58 39.55828 23.43345 39018 ft 475 kts 161°
2026-05-06 15:58 39.49657 23.46337 39019 ft 474 kts 161°
2026-05-06 15:59 39.43469 23.49332 39028 ft 475 kts 161°
2026-05-06 15:59 39.37318 23.52310 39028 ft 475 kts 161°
2026-05-06 16:00 39.34204 23.53817 39148 ft 477 kts 161°
2026-05-06 16:00 39.31089 23.55326 39024 ft 475 kts 161°
2026-05-06 16:00 39.24930 23.58300 39031 ft 475 kts 161°
2026-05-06 16:01 39.18750 23.61281 39035 ft 475 kts 161°
2026-05-06 16:01 39.12582 23.64250 39028 ft 469 kts 161°
2026-05-06 16:02 39.09496 23.65485 39020 ft 454 kts 171°
2026-05-06 16:02 39.06424 23.66018 39026 ft 447 kts 181°
2026-05-06 16:02 39.00305 23.65149 39046 ft 443 kts 195°
2026-05-06 16:03 38.94117 23.64841 39038 ft 454 kts 175°
2026-05-06 16:03 38.87791 23.66044 37406 ft 474 kts 176°
2026-05-06 16:04 38.84529 23.66542 36288 ft 473 kts 177°
2026-05-06 16:04 38.81303 23.67023 35753 ft 462 kts 177°
2026-05-06 16:04 38.78170 23.67485 35260 ft 452 kts 177°
2026-05-06 16:04 38.75059 23.67940 34770 ft 452 kts 178°
2026-05-06 16:05 38.71937 23.68397 34273 ft 459 kts 178°
2026-05-06 16:05 38.68763 23.68862 33769 ft 463 kts 178°
2026-05-06 16:05 38.65531 23.69335 33253 ft 464 kts 177°
2026-05-06 16:05 38.62348 23.69800 32749 ft 465 kts 177°
2026-05-06 16:06 38.59149 23.70267 32236 ft 465 kts 177°
2026-05-06 16:06 38.55936 23.70736 31724 ft 466 kts 177°
2026-05-06 16:06 38.52696 23.71209 31209 ft 467 kts 177°
2026-05-06 16:06 38.49467 23.71679 30692 ft 467 kts 177°
2026-05-06 16:07 38.46254 23.72148 30182 ft 463 kts 177°
2026-05-06 16:07 38.43102 23.72606 29678 ft 459 kts 176°
2026-05-06 16:07 38.39936 23.73066 29172 ft 456 kts 176°
2026-05-06 16:07 38.36797 23.73522 28671 ft 453 kts 176°
2026-05-06 16:08 38.33645 23.73979 28167 ft 451 kts 176°
2026-05-06 16:08 38.30579 23.74423 27676 ft 448 kts 176°
2026-05-06 16:08 38.27477 23.74872 27181 ft 445 kts 176°
2026-05-06 16:08 38.24499 23.75303 26708 ft 442 kts 176°
2026-05-06 16:09 38.21392 23.75752 26210 ft 439 kts 176°
2026-05-06 16:09 38.18359 23.76255 25716 ft 439 kts 169°
2026-05-06 16:09 38.15535 23.77769 25286 ft 439 kts 149°
2026-05-06 16:09 38.13008 23.79916 24795 ft 438 kts 146°
2026-05-06 16:10 38.10515 23.82096 24304 ft 434 kts 145°
2026-05-06 16:10 38.08041 23.84268 23825 ft 431 kts 145°
2026-05-06 16:10 38.05600 23.86412 23353 ft 428 kts 145°
2026-05-06 16:10 38.03139 23.88573 22599 ft 427 kts 145°
2026-05-06 16:11 38.00742 23.90675 21853 ft 419 kts 145°
2026-05-06 16:11 37.98469 23.92668 21153 ft 413 kts 146°
2026-05-06 16:11 37.96029 23.94805 20401 ft 409 kts 145°
2026-05-06 16:11 37.93727 23.96820 19695 ft 403 kts 145°
2026-05-06 16:12 37.91419 23.98838 18987 ft 399 kts 146°
2026-05-06 16:12 37.89167 24.00805 18140 ft 396 kts 146°
2026-05-06 16:12 37.86906 24.02780 17272 ft 389 kts 146°
2026-05-06 16:12 37.84714 24.04691 16447 ft 381 kts 145°
2026-05-06 16:13 37.82558 24.06572 15621 ft 375 kts 145°
2026-05-06 16:13 37.80644 24.08676 14818 ft 366 kts 128°
2026-05-06 16:13 37.79093 24.11158 14067 ft 361 kts 127°
2026-05-06 16:13 37.77695 24.13744 13296 ft 354 kts 111°
2026-05-06 16:14 37.77251 24.16714 12616 ft 342 kts 83°
2026-05-06 16:14 37.77911 24.19503 11962 ft 332 kts 56°
2026-05-06 16:14 37.79487 24.21512 11361 ft 318 kts 26°
2026-05-06 16:14 37.81547 24.22254 10925 ft 303 kts
2026-05-06 16:15 37.83613 24.22504 10466 ft 296 kts
2026-05-06 16:15 37.85604 24.22795 10008 ft 287 kts 13°
2026-05-06 16:15 37.87498 24.23514 9584 ft 280 kts
2026-05-06 16:15 37.89444 24.23619 9208 ft 280 kts 360°
2026-05-06 16:16 37.91394 24.23637 8771 ft 280 kts 360°
2026-05-06 16:16 37.93339 24.23651 8329 ft 278 kts 360°
2026-05-06 16:16 37.95243 24.23662 7896 ft 276 kts 360°
2026-05-06 16:16 37.97185 24.23673 7474 ft 275 kts 360°
2026-05-06 16:17 37.99093 24.23683 7060 ft 274 kts 360°
2026-05-06 16:17 38.00985 24.23694 6637 ft 274 kts 360°
2026-05-06 16:17 38.02844 24.23310 6202 ft 272 kts 333°
2026-05-06 16:17 38.04233 24.21757 5829 ft 270 kts 308°
2026-05-06 16:18 38.05549 24.20069 5438 ft 270 kts 318°
2026-05-06 16:18 38.06950 24.18508 5192 ft 268 kts 318°
2026-05-06 16:18 38.08353 24.16950 4938 ft 268 kts 318°
2026-05-06 16:18 38.09662 24.15318 4672 ft 261 kts 302°
2026-05-06 16:19 38.10246 24.13217 4437 ft 250 kts 275°
2026-05-06 16:19 38.09892 24.11155 4227 ft 238 kts 236°
2026-05-06 16:19 38.08763 24.09698 4132 ft 223 kts 231°
2026-05-06 16:19 38.07935 24.08063 3777 ft 220 kts 233°
2026-05-06 16:20 38.06932 24.06607 3383 ft 219 kts 225°
2026-05-06 16:20 38.05856 24.05305 3039 ft 211 kts 221°
2026-05-06 16:20 38.04796 24.04146 2982 ft 191 kts 219°
2026-05-06 16:20 38.03842 24.03056 2923 ft 176 kts 221°
2026-05-06 16:21 38.02949 24.02111 2706 ft 157 kts 218°
2026-05-06 16:21 38.02097 24.01310 2401 ft 149 kts 213°
2026-05-06 16:21 38.01273 24.00597 2059 ft 142 kts 214°
2026-05-06 16:21 38.00490 23.99871 1723 ft 135 kts 220°
2026-05-06 16:22 37.99796 23.99156 1517 ft 124 kts 218°
2026-05-06 16:22 37.99113 23.98492 1353 ft 123 kts 217°
2026-05-06 16:22 37.98428 23.97838 1199 ft 124 kts 217°
2026-05-06 16:22 37.97727 23.97195 1028 ft 124 kts 217°
2026-05-06 16:23 37.97035 23.96530 883 ft 124 kts 216°
2026-05-06 16:23 37.96351 23.95875 737 ft 124 kts 216°
2026-05-06 16:23 37.95669 23.95218 533 ft 123 kts 214°
2026-05-06 16:23 37.94971 23.94571 354 ft 122 kts 216°
2026-05-06 16:24 37.94297 23.93934 276 ft 118 kts 217°
2026-05-06 16:24 37.93763 23.93423 267 ft 71 kts 217°
2026-05-06 16:24 37.93476 23.93179 262 ft 31 kts 194°
2026-05-06 16:24 37.93303 23.93135 260 ft 16 kts 182°
2026-05-06 16:25 37.93277 23.93138 260 ft 0 kts 159°
2026-05-06 16:25 37.93273 23.93141 260 ft 2 kts 153°
2026-05-06 16:25 37.93253 23.93171 260 ft 6 kts 108°
2026-05-06 16:26 37.93239 23.93240 260 ft 9 kts 111°
2026-05-06 16:26 37.93226 23.93329 260 ft 11 kts 62°
2026-05-06 16:26 37.93290 23.93396 261 ft 11 kts 38°
2026-05-06 16:26 37.93352 23.93456 263 ft 10 kts 38°
2026-05-06 16:27 37.93415 23.93518 264 ft 12 kts 37°
2026-05-06 16:27 37.93487 23.93586 265 ft 13 kts 37°
2026-05-06 16:27 37.93564 23.93657 267 ft 14 kts 36°
2026-05-06 16:27 37.93651 23.93740 269 ft 17 kts 36°
2026-05-06 16:28 37.93756 23.93838 271 ft 19 kts 35°
2026-05-06 16:28 37.93870 23.93949 274 ft 22 kts 38°
2026-05-06 16:28 37.94001 23.94072 277 ft 25 kts 36°
2026-05-06 16:28 37.94150 23.94213 279 ft 27 kts 37°
2026-05-06 16:29 37.94304 23.94359 282 ft 27 kts 37°
2026-05-06 16:29 37.94453 23.94498 285 ft 26 kts 36°
2026-05-06 16:29 37.94594 23.94633 287 ft 20 kts 38°
2026-05-06 16:29 37.94602 23.94760 289 ft 15 kts 121°
2026-05-06 16:30 37.94537 23.94872 291 ft 15 kts 126°
2026-05-06 16:30 37.94493 23.94944 292 ft 16 kts 125°
2026-05-06 16:30 37.94419 23.95073 289 ft 0 kts 128°
2026-05-06 16:30 37.94418 23.95073 289 ft 0 kts 128°
2026-05-06 16:31 37.94418 23.95074 289 ft 0 kts 128°
2026-05-06 16:31 37.94417 23.95075 289 ft 0 kts 128°